Time,TemperatureF,DewpointF,PressureIn,WindDirection,WindDirectionDegrees,WindSpeedMPH,WindSpeedGustMPH,Humidity,HourlyPrecipIn,Conditions,Clouds,dailyrainin,SolarRadiationWatts/m^2,SoftwareType,DateUTC
2013-06-02 00:00:00,55.0,3.0,-100.00,NNE,20,1.0,4.0,12,0.00,,,0.00,0.000000,,2013-06-02 07:00:00,
2013-06-02 00:22:00,55.0,3.0,-100.00,NNE,20,1.0,4.0,12,0.00,,,0.00,0.000000,,2013-06-02 07:22:00,
2013-06-02 00:32:00,55.0,3.0,-100.00,NNE,20,1.0,4.0,12,0.00,,,0.00,0.000000,,2013-06-02 07:32:00,
2013-06-02 00:42:00,55.0,3.0,-100.00,NNE,20,1.0,4.0,12,0.00,,,0.00,0.000000,,2013-06-02 07:42:00,
2013-06-02 00:52:00,55.0,3.0,-100.00,NNE,20,1.0,4.0,12,0.00,,,0.00,0.000000,,2013-06-02 07:52:00,
2013-06-02 01:00:00,56.0,4.0,-100.00,ENE,62,1.0,5.0,12,0.00,,,0.00,0.000000,,2013-06-02 08:00:00,
2013-06-02 01:22:00,56.0,4.0,-100.00,ENE,62,1.0,5.0,12,0.00,,,0.00,0.000000,,2013-06-02 08:22:00,
2013-06-02 01:32:00,56.0,4.0,-100.00,ENE,62,1.0,5.0,12,0.00,,,0.00,0.000000,,2013-06-02 08:32:00,
2013-06-02 01:42:00,56.0,4.0,-100.00,ENE,62,1.0,5.0,12,0.00,,,0.00,0.000000,,2013-06-02 08:42:00,
2013-06-02 01:52:00,56.0,4.0,-100.00,ENE,62,1.0,5.0,12,0.00,,,0.00,0.000000,,2013-06-02 08:52:00,
2013-06-02 02:00:00,56.0,6.0,-100.00,ENE,70,3.0,5.0,13,0.00,,,0.00,0.000000,,2013-06-02 09:00:00,
2013-06-02 02:21:00,56.0,6.0,-100.00,ENE,70,3.0,5.0,13,0.00,,,0.00,0.000000,,2013-06-02 09:21:00,
2013-06-02 02:33:00,56.0,6.0,-100.00,ENE,70,3.0,5.0,13,0.00,,,0.00,0.000000,,2013-06-02 09:33:00,
2013-06-02 02:43:00,56.0,6.0,-100.00,ENE,70,3.0,5.0,13,0.00,,,0.00,0.000000,,2013-06-02 09:43:00,
2013-06-02 02:53:00,56.0,6.0,-100.00,ENE,70,3.0,5.0,13,0.00,,,0.00,0.000000,,2013-06-02 09:53:00,
2013-06-02 03:00:00,58.0,6.0,-100.00,South,190,2.0,8.0,12,0.00,,,-99.99,0.000000,,2013-06-02 10:00:00,
2013-06-02 03:23:00,58.0,6.0,-100.00,South,190,2.0,8.0,12,0.00,,,-99.99,0.000000,,2013-06-02 10:23:00,
2013-06-02 03:33:00,58.0,6.0,-100.00,South,190,2.0,8.0,12,0.00,,,-99.99,0.000000,,2013-06-02 10:33:00,
2013-06-02 03:42:00,58.0,6.0,-100.00,South,190,2.0,8.0,12,0.00,,,-99.99,0.000000,,2013-06-02 10:42:00,
2013-06-02 03:52:00,58.0,6.0,-100.00,South,190,2.0,8.0,12,0.00,,,-99.99,0.000000,,2013-06-02 10:52:00,
2013-06-02 04:00:00,56.0,6.0,-100.00,ENE,61,2.0,7.0,13,0.00,,,0.00,0.000000,,2013-06-02 11:00:00,
2013-06-02 04:22:00,56.0,6.0,-100.00,ENE,61,2.0,7.0,13,0.00,,,0.00,0.000000,,2013-06-02 11:22:00,
2013-06-02 04:32:00,56.0,6.0,-100.00,ENE,61,2.0,7.0,13,0.00,,,0.00,0.000000,,2013-06-02 11:32:00,
2013-06-02 04:42:00,56.0,6.0,-100.00,ENE,61,2.0,7.0,13,0.00,,,0.00,0.000000,,2013-06-02 11:42:00,
2013-06-02 04:52:00,56.0,6.0,-100.00,ENE,61,2.0,7.0,13,0.00,,,0.00,0.000000,,2013-06-02 11:52:00,
2013-06-02 05:00:00,57.0,5.0,-100.00,ENE,77,2.0,6.0,12,0.00,,,0.00,0.000000,,2013-06-02 12:00:00,
2013-06-02 05:22:00,57.0,5.0,-100.00,ENE,77,2.0,6.0,12,0.00,,,0.00,0.000000,,2013-06-02 12:22:00,
2013-06-02 05:32:00,57.0,5.0,-100.00,ENE,77,2.0,6.0,12,0.00,,,0.00,0.000000,,2013-06-02 12:32:00,
2013-06-02 05:42:00,57.0,5.0,-100.00,ENE,77,2.0,6.0,12,0.00,,,0.00,0.000000,,2013-06-02 12:42:00,
2013-06-02 05:52:00,57.0,5.0,-100.00,ENE,77,2.0,6.0,12,0.00,,,0.00,0.000000,,2013-06-02 12:52:00,
2013-06-02 06:00:00,59.0,6.0,-100.00,East,92,2.0,6.0,12,0.00,,,0.00,7.000000,,2013-06-02 13:00:00,
2013-06-02 06:22:00,59.0,6.0,-100.00,East,92,2.0,6.0,12,0.00,,,0.00,7.000000,,2013-06-02 13:22:00,
2013-06-02 06:32:00,59.0,6.0,-100.00,East,92,2.0,6.0,12,0.00,,,0.00,7.000000,,2013-06-02 13:32:00,
2013-06-02 06:42:00,59.0,6.0,-100.00,East,92,2.0,6.0,12,0.00,,,0.00,7.000000,,2013-06-02 13:42:00,
2013-06-02 06:52:00,59.0,6.0,-100.00,East,92,2.0,6.0,12,0.00,,,0.00,7.000000,,2013-06-02 13:52:00,
2013-06-02 07:00:00,62.0,7.0,-100.00,East,97,3.0,7.0,11,0.00,,,0.00,46.000000,,2013-06-02 14:00:00,
2013-06-02 07:22:00,62.0,7.0,-100.00,East,97,3.0,7.0,11,0.00,,,0.00,46.000000,,2013-06-02 14:22:00,
2013-06-02 07:32:00,62.0,7.0,-100.00,East,97,3.0,7.0,11,0.00,,,0.00,46.000000,,2013-06-02 14:32:00,
2013-06-02 07:42:00,62.0,7.0,-100.00,East,97,3.0,7.0,11,0.00,,,0.00,46.000000,,2013-06-02 14:42:00,
2013-06-02 07:52:00,62.0,7.0,-100.00,East,97,3.0,7.0,11,0.00,,,0.00,46.000000,,2013-06-02 14:52:00,
2013-06-02 08:00:00,68.0,5.0,-100.00,East,98,3.0,8.0,8,0.00,,,0.00,326.000000,,2013-06-02 15:00:00,
2013-06-02 08:22:00,68.0,5.0,-100.00,East,98,3.0,8.0,8,0.00,,,0.00,326.000000,,2013-06-02 15:22:00,
2013-06-02 08:33:00,68.0,5.0,-100.00,East,98,3.0,8.0,8,0.00,,,0.00,326.000000,,2013-06-02 15:33:00,
2013-06-02 08:43:00,68.0,5.0,-100.00,East,98,3.0,8.0,8,0.00,,,0.00,326.000000,,2013-06-02 15:43:00,
2013-06-02 08:53:00,68.0,5.0,-100.00,East,98,3.0,8.0,8,0.00,,,0.00,326.000000,,2013-06-02 15:53:00,
2013-06-02 09:00:00,73.0,5.0,-100.00,SW,223,3.0,8.0,7,0.00,,,0.00,726.000000,,2013-06-02 16:00:00,
2013-06-02 09:23:00,73.0,5.0,-100.00,SW,223,3.0,8.0,7,0.00,,,0.00,726.000000,,2013-06-02 16:23:00,
2013-06-02 09:33:00,73.0,5.0,-100.00,SW,223,3.0,8.0,7,0.00,,,0.00,726.000000,,2013-06-02 16:33:00,
2013-06-02 09:42:00,73.0,5.0,-100.00,SW,223,3.0,8.0,7,0.00,,,0.00,726.000000,,2013-06-02 16:42:00,
2013-06-02 09:52:00,73.0,5.0,-100.00,SW,223,3.0,8.0,7,0.00,,,0.00,726.000000,,2013-06-02 16:52:00,
2013-06-02 10:00:00,76.0,4.0,-100.00,North,7,3.0,8.0,6,0.00,,,0.00,961.000000,,2013-06-02 17:00:00,
2013-06-02 10:23:00,76.0,4.0,-100.00,North,7,3.0,8.0,6,0.00,,,0.00,961.000000,,2013-06-02 17:23:00,
2013-06-02 10:32:00,76.0,4.0,-100.00,North,7,3.0,8.0,6,0.00,,,0.00,961.000000,,2013-06-02 17:32:00,
2013-06-02 10:42:00,76.0,4.0,-100.00,North,7,3.0,8.0,6,0.00,,,0.00,961.000000,,2013-06-02 17:42:00,
2013-06-02 10:52:00,76.0,4.0,-100.00,North,7,3.0,8.0,6,0.00,,,0.00,961.000000,,2013-06-02 17:52:00,
2013-06-02 11:00:00,78.0,6.0,-100.00,SW,225,4.0,10.0,6,0.00,,,0.00,1159.000000,,2013-06-02 18:00:00,
2013-06-02 11:22:00,78.0,6.0,-100.00,SW,225,4.0,10.0,6,0.00,,,0.00,1159.000000,,2013-06-02 18:22:00,
2013-06-02 11:32:00,78.0,6.0,-100.00,SW,225,4.0,10.0,6,0.00,,,0.00,1159.000000,,2013-06-02 18:32:00,
2013-06-02 11:42:00,78.0,6.0,-100.00,SW,225,4.0,10.0,6,0.00,,,0.00,1159.000000,,2013-06-02 18:42:00,
2013-06-02 11:52:00,78.0,6.0,-100.00,SW,225,4.0,10.0,6,0.00,,,0.00,1159.000000,,2013-06-02 18:52:00,
2013-06-02 12:00:00,82.0,8.0,-100.00,South,185,5.0,12.0,6,0.00,,,0.00,1289.000000,,2013-06-02 19:00:00,
2013-06-02 12:22:00,82.0,8.0,-100.00,South,185,5.0,12.0,6,0.00,,,0.00,1289.000000,,2013-06-02 19:22:00,
2013-06-02 12:32:00,82.0,8.0,-100.00,South,185,5.0,12.0,6,0.00,,,0.00,1289.000000,,2013-06-02 19:32:00,
2013-06-02 12:42:00,82.0,8.0,-100.00,South,185,5.0,12.0,6,0.00,,,0.00,1289.000000,,2013-06-02 19:42:00,
2013-06-02 12:52:00,82.0,8.0,-100.00,South,185,5.0,12.0,6,0.00,,,0.00,1289.000000,,2013-06-02 19:52:00,
2013-06-02 13:00:00,84.0,10.0,-100.00,WSW,247,4.0,10.0,6,0.00,,,0.00,1342.000000,,2013-06-02 20:00:00,
2013-06-02 13:22:00,84.0,10.0,-100.00,WSW,247,4.0,10.0,6,0.00,,,0.00,1342.000000,,2013-06-02 20:22:00,
2013-06-02 13:32:00,84.0,10.0,-100.00,WSW,247,4.0,10.0,6,0.00,,,0.00,1342.000000,,2013-06-02 20:32:00,
2013-06-02 13:42:00,84.0,10.0,-100.00,WSW,247,4.0,10.0,6,0.00,,,0.00,1342.000000,,2013-06-02 20:42:00,
2013-06-02 13:52:00,84.0,10.0,-100.00,WSW,247,4.0,10.0,6,0.00,,,0.00,1342.000000,,2013-06-02 20:52:00,
2013-06-02 14:00:00,85.0,14.0,-100.00,SSW,212,3.0,11.0,7,0.00,,,0.00,1342.000000,,2013-06-02 21:00:00,
2013-06-02 14:22:00,85.0,14.0,-100.00,SSW,212,3.0,11.0,7,0.00,,,0.00,1342.000000,,2013-06-02 21:22:00,
2013-06-02 14:33:00,85.0,14.0,-100.00,SSW,212,3.0,11.0,7,0.00,,,0.00,1342.000000,,2013-06-02 21:33:00,
2013-06-02 14:42:00,85.0,14.0,-100.00,SSW,212,3.0,11.0,7,0.00,,,0.00,1342.000000,,2013-06-02 21:42:00,
2013-06-02 14:53:00,85.0,14.0,-100.00,SSW,212,3.0,11.0,7,0.00,,,0.00,1342.000000,,2013-06-02 21:53:00,
2013-06-02 15:00:00,79.0,13.0,-100.00,West,278,6.0,18.0,8,0.00,,,0.00,706.000000,,2013-06-02 22:00:00,
2013-06-02 15:23:00,79.0,13.0,-100.00,West,278,6.0,18.0,8,0.00,,,0.00,706.000000,,2013-06-02 22:23:00,
2013-06-02 15:33:00,79.0,13.0,-100.00,West,278,6.0,18.0,8,0.00,,,0.00,706.000000,,2013-06-02 22:33:00,
2013-06-02 15:42:00,79.0,13.0,-100.00,West,278,6.0,18.0,8,0.00,,,0.00,706.000000,,2013-06-02 22:42:00,
2013-06-02 15:52:00,79.0,13.0,-100.00,West,278,6.0,18.0,8,0.00,,,0.00,706.000000,,2013-06-02 22:52:00,
2013-06-02 16:00:00,78.0,15.0,-100.00,WSW,253,5.0,24.0,9,0.00,,,0.00,568.000000,,2013-06-02 23:00:00,
2013-06-02 16:22:00,78.0,15.0,-100.00,WSW,253,5.0,24.0,9,0.00,,,0.00,568.000000,,2013-06-02 23:22:00,
2013-06-02 16:32:00,78.0,15.0,-100.00,WSW,253,5.0,24.0,9,0.00,,,0.00,568.000000,,2013-06-02 23:32:00,
2013-06-02 16:42:00,78.0,15.0,-100.00,WSW,253,5.0,24.0,9,0.00,,,0.00,568.000000,,2013-06-02 23:42:00,
2013-06-02 16:52:00,78.0,15.0,-100.00,WSW,253,5.0,24.0,9,0.00,,,0.00,568.000000,,2013-06-02 23:52:00,
2013-06-02 17:00:00,79.0,13.0,-100.00,WSW,246,4.0,15.0,8,0.00,,,0.00,534.000000,,2013-06-03 00:00:00,
2013-06-02 17:22:00,79.0,13.0,-100.00,WSW,246,4.0,15.0,8,0.00,,,0.00,534.000000,,2013-06-03 00:22:00,
2013-06-02 17:32:00,79.0,13.0,-100.00,WSW,246,4.0,15.0,8,0.00,,,0.00,534.000000,,2013-06-03 00:32:00,
2013-06-02 17:42:00,79.0,13.0,-100.00,WSW,246,4.0,15.0,8,0.00,,,0.00,534.000000,,2013-06-03 00:42:00,
2013-06-02 17:52:00,79.0,13.0,-100.00,WSW,246,4.0,15.0,8,0.00,,,0.00,534.000000,,2013-06-03 00:52:00,
2013-06-02 18:00:00,80.0,13.0,-100.00,West,261,10.0,21.0,8,0.00,,,0.00,465.000000,,2013-06-03 01:00:00,
2013-06-02 18:21:00,80.0,13.0,-100.00,West,261,10.0,21.0,8,0.00,,,0.00,465.000000,,2013-06-03 01:21:00,
2013-06-02 18:32:00,80.0,13.0,-100.00,West,261,10.0,21.0,8,0.00,,,0.00,465.000000,,2013-06-03 01:32:00,
2013-06-02 18:42:00,80.0,13.0,-100.00,West,261,10.0,21.0,8,0.00,,,0.00,465.000000,,2013-06-03 01:42:00,
2013-06-02 18:52:00,80.0,13.0,-100.00,West,261,10.0,21.0,8,0.00,,,0.00,465.000000,,2013-06-03 01:52:00,
2013-06-02 19:00:00,76.0,10.0,-100.00,West,268,10.0,21.0,8,0.00,,,0.00,348.000000,,2013-06-03 02:00:00,
2013-06-02 19:22:00,76.0,10.0,-100.00,West,268,10.0,21.0,8,0.00,,,0.00,348.000000,,2013-06-03 02:22:00,
2013-06-02 19:32:00,76.0,10.0,-100.00,West,268,10.0,21.0,8,0.00,,,0.00,348.000000,,2013-06-03 02:32:00,
2013-06-02 19:42:00,76.0,10.0,-100.00,West,268,10.0,21.0,8,0.00,,,0.00,348.000000,,2013-06-03 02:42:00,
2013-06-02 19:52:00,76.0,10.0,-100.00,West,268,10.0,21.0,8,0.00,,,0.00,348.000000,,2013-06-03 02:52:00,
2013-06-02 20:00:00,73.0,11.0,-100.00,West,280,7.0,20.0,9,0.00,,,0.00,65.000000,,2013-06-03 03:00:00,
2013-06-02 20:22:00,73.0,11.0,-100.00,West,280,7.0,20.0,9,0.00,,,0.00,65.000000,,2013-06-03 03:22:00,
2013-06-02 20:33:00,73.0,11.0,-100.00,West,280,7.0,20.0,9,0.00,,,0.00,65.000000,,2013-06-03 03:33:00,
2013-06-02 20:43:00,73.0,11.0,-100.00,West,280,7.0,20.0,9,0.00,,,0.00,65.000000,,2013-06-03 03:43:00,
2013-06-02 20:53:00,73.0,11.0,-100.00,West,280,7.0,20.0,9,0.00,,,0.00,65.000000,,2013-06-03 03:53:00,
2013-06-02 21:00:00,70.0,9.0,-100.00,WNW,285,7.0,15.0,9,0.00,,,0.00,5.000000,,2013-06-03 04:00:00,
2013-06-02 21:23:00,70.0,9.0,-100.00,WNW,285,7.0,15.0,9,0.00,,,0.00,5.000000,,2013-06-03 04:23:00,
2013-06-02 21:33:00,70.0,9.0,-100.00,WNW,285,7.0,15.0,9,0.00,,,0.00,5.000000,,2013-06-03 04:33:00,
2013-06-02 21:42:00,70.0,9.0,-100.00,WNW,285,7.0,15.0,9,0.00,,,0.00,5.000000,,2013-06-03 04:42:00,
2013-06-02 21:53:00,70.0,9.0,-100.00,WNW,285,7.0,15.0,9,0.00,,,0.00,5.000000,,2013-06-03 04:53:00,
2013-06-02 22:00:00,68.0,9.0,-100.00,WNW,294,6.0,16.0,10,0.00,,,0.00,0.000000,,2013-06-03 05:00:00,
2013-06-02 22:22:00,68.0,9.0,-100.00,WNW,294,6.0,16.0,10,0.00,,,0.00,0.000000,,2013-06-03 05:22:00,
2013-06-02 22:32:00,68.0,9.0,-100.00,WNW,294,6.0,16.0,10,0.00,,,0.00,0.000000,,2013-06-03 05:32:00,
2013-06-02 22:43:00,68.0,9.0,-100.00,WNW,294,6.0,16.0,10,0.00,,,0.00,0.000000,,2013-06-03 05:43:00,
2013-06-02 22:52:00,68.0,9.0,-100.00,WNW,294,6.0,16.0,10,0.00,,,0.00,0.000000,,2013-06-03 05:52:00,
2013-06-02 23:00:00,67.0,11.0,-100.00,WNW,283,6.0,12.0,11,0.00,,,0.00,0.000000,,2013-06-03 06:00:00,
2013-06-02 23:22:00,67.0,11.0,-100.00,WNW,283,6.0,12.0,11,0.00,,,0.00,0.000000,,2013-06-03 06:22:00,
2013-06-02 23:32:00,67.0,11.0,-100.00,WNW,283,6.0,12.0,11,0.00,,,0.00,0.000000,,2013-06-03 06:32:00,
2013-06-02 23:42:00,67.0,11.0,-100.00,WNW,283,6.0,12.0,11,0.00,,,0.00,0.000000,,2013-06-03 06:42:00,
2013-06-02 23:52:00,67.0,11.0,-100.00,WNW,283,6.0,12.0,11,0.00,,,0.00,0.000000,,2013-06-03 06:52:00,